This demonstration page uses our WeatherBlox Daily Observations layout. Learn more.

Left ArrowRight Arrow

Hourly Observations for May 3, 2016

Temp ( °F °C ) Dew Point ( °F °C ) Humidity (%) Winds ( mph kmh ) Pressure ( in mb ) Visibility ( mi km ) Precip ( " mm )
12:52 am 00:52 Clear 46 7.8 44 6.7 93 93 WNW 3 6 30.06 1018 9 14 0.00 0.00
1:09 am 01:09 Clear with Mist and Fog 45 7.2 43 6.1 93 93 Calm 30.09 1019 3 5 0.00 0.00
1:18 am 01:18 Clear with Mist and Fog 45 7 43 6 93 93 Calm 30.09 1019 2 3 0.00 0.00
1:26 am 01:26 Mostly Clear with Mist and Fog 45 7 43 6 93 93 Calm 30.09 1019 2 3 0.00 0.00
1:35 am 01:35 Clear 44 6.7 40 4.4 85 85 Calm 30.09 1019 10 16 0.00 0.00
1:52 am 01:52 Clear 45 7.2 41 5 86 86 Calm 30.06 1018 10 16 0.00 0.00
2:01 am 02:01 Mostly Clear with Mist and Fog 44 6.7 41 5 89 89 Calm 30.09 1019 3 4 0.00 0.00
2:13 am 02:13 Mostly Clear with Mist and Fog 42 5.6 39 3.9 89 89 Calm 30.09 1019 6 10 0.00 0.00
2:27 am 02:27 Mostly Cloudy with Mist and Fog 43 6.1 40 4.4 89 89 Calm 30.09 1019 3 4 0.00 0.00
2:35 am 02:35 Mostly Cloudy with Mist and Fog 45 7.2 41 5 86 86 Calm 30.09 1019 4 6 0.00 0.00
2:52 am 02:52 Cloudy 47 8.3 44 6.7 90 90 NNW 3 6 30.05 1018 10 16 0.00 0.00
3:52 am 03:52 Cloudy 47 8.3 44 6.7 90 90 Calm 30.05 1018 8 13 0.00 0.00
4:20 am 04:20 Partly Cloudy 45 7 43 6 93 93 WNW 3 6 30.09 1019 8 13 0.00 0.00
4:52 am 04:52 Mostly Clear with Mist and Fog 45 7.2 42 5.6 90 90 Calm 30.06 1018 2 2 0.00 0.00
4:58 am 04:58 Mostly Cloudy with Mist and Fog 45 7 43 6 93 93 Calm 30.09 1019 1 1 0.00 0.00
5:12 am 05:12 Mostly Clear with Mist and Fog 43 6 41 5 93 93 Calm 30.09 1019 1 2 0.00 0.00
5:26 am 05:26 Mostly Cloudy with Mist and Fog 43 6 41 5 93 93 Calm 30.09 1019 2 3 0.00 0.00
5:30 am 05:30 Mostly Cloudy with Mist and Fog 43 6 41 5 93 93 Calm 30.09 1019 1 2 0.00 0.00
5:35 am 05:35 Mostly Cloudy with Fog 43 6.1 41 5 93 93 Calm 30.09 1019 0 0 0.00 0.00
5:52 am 05:52 Mostly Cloudy with Fog 43 6.1 41 5 93 93 NW 3 6 30.06 1018 0 0 0.00 0.00
6:05 am 06:05 Mostly Cloudy with Fog 42 5.6 41 5 96 96 Calm 30.09 1019 0 0 0.00 0.00
6:40 am 06:40 Mostly Cloudy with Fog 43 6 39 4 87 87 Calm 30.09 1019 0 0 0.00 0.00
6:52 am 06:52 Mostly Cloudy with Fog 42 5.6 41 5 96 96 Calm 30.07 1018 5 8 0.00 0.00
7:52 am 07:52 Mostly Cloudy with Fog 45 7.2 43 6.1 93 93 Calm 30.08 1019 0 0 0.00 0.00
8:30 am 08:30 Mostly Cloudy with Mist and Fog 48 9 46 8 94 94 NNW 3 6 30.12 1020 1 2 0.00 0.00
8:33 am 08:33 Mostly Cloudy with Mist and Fog 49 9.4 46 7.8 90 90 NNW 3 6 30.12 1020 3 5 0.00 0.00
8:52 am 08:52 Mostly Sunny 51 10.6 47 8.3 86 86 NNW 6 9 30.08 1019 8 13 0.00 0.00
9:52 am 09:52 Sunny 56 13.3 45 7.2 67 67 NW 9 15 30.08 1019 10 16 0.00 0.00
10:52 am 10:52 Partly Cloudy 59 15 45 7.2 60 60 NNW 8 13 30.09 1019 10 16 0.00 0.00
11:52 am 11:52 Mostly Sunny 62 16.7 43 6.1 50 50 NNW 9 15 30.08 1019 10 16 0.00 0.00
12:52 pm 12:52 Partly Cloudy 61 16.1 41 5 48 48 undefined N/A 30.06 1018 10 16 0.00 0.00
1:52 pm 13:52 Mostly Sunny 64 17.8 40 4.4 41 41 N 15 24 30.04 1017 10 16 0.00 0.00
2:52 pm 14:52 Mostly Cloudy 64 17.8 40 4.4 41 41 N 10 17 30.03 1017 10 16 0.00 0.00
3:52 pm 15:52 Mostly Sunny 63 17.2 40 4.4 43 43 NNW 9 15 30.01 1016 10 16 0.00 0.00
4:52 pm 16:52 Mostly Sunny 63 17.2 39 3.9 41 41 NW 10 17 30.00 1016 10 16 0.00 0.00
5:52 pm 17:52 Partly Cloudy 66 18.9 36 2.2 33 33 NW 9 15 29.99 1016 10 16 0.00 0.00
6:52 pm 18:52 Sunny 64 17.8 38 3.3 38 38 WNW 7 11 29.98 1015 10 16 0.00 0.00
7:52 pm 19:52 Sunny 61 16.1 40 4.4 46 46 W 6 9 29.98 1015 10 16 0.00 0.00
8:52 pm 20:52 Clear 53 11.7 42 5.6 66 66 WSW 5 7 29.98 1015 10 16 0.00 0.00
9:52 pm 21:52 Clear 50 10 42 5.6 74 74 SW 7 11 29.98 1015 10 16 0.00 0.00
10:52 pm 22:52 Clear 50 10 41 5 71 71 SW 7 11 29.97 1015 10 16 0.00 0.00
11:52 pm 23:52 Clear 50 10 41 5 71 71 SW 8 13 29.95 1014 10 16 0.00 0.00

Powered by AerisWeather